Location: Newark
(48.3983°N, 16.0611°E)
Time: 02:41:28
(UTC+00:00)

Envisat - Visible Passes

Search period start: 26 January 2020 00:00
Search period end: 05 February 2020 00:00
Orbit: 764 x 766 km, 98.1° (Epoch: 25 January)

Date Brightness Start Highest point End Pass type
(mag) Time Alt. Az. Time Alt. Az. Time Alt. Az.
26 Jan 3.5 05:35:04 10° NNE 05:40:08 67° ESE 05:45:12 10° S visible
26 Jan 3.5 16:53:18 10° S 16:58:22 66° WSW 17:03:27 10° NNW visible
27 Jan 4.9 04:58:36 10° NNE 05:03:12 33° E 05:07:45 10° SSE visible
27 Jan 3.0 16:16:36 10° SSE 16:21:36 62° ENE 16:26:38 10° N visible
27 Jan 5.7 17:57:23 10° SW 18:01:03 20° W 18:04:45 10° NW visible
28 Jan 6.0 04:22:53 10° NE 04:26:02 16° E 04:29:10 10° SE visible
28 Jan 4.5 17:19:12 10° SSW 17:23:57 40° W 17:28:44 10° NNW visible
29 Jan 3.9 05:23:49 10° NNE 05:28:49 54° E 05:33:47 10° S visible
29 Jan 3.1 16:41:58 10° SSE 16:47:03 82° WSW 16:52:10 10° NNW visible
29 Jan 6.3 18:25:06 10° WSW 18:26:54 12° W 18:28:42 10° WNW visible
30 Jan 5.3 04:47:31 10° NE 04:51:48 27° E 04:56:04 10° SSE visible
30 Jan 5.4 17:45:32 10° SSW 17:49:38 24° W 17:53:47 10° NW visible
31 Jan 6.3 04:12:15 10° ENE 04:14:35 13° E 04:16:55 10° ESE visible
31 Jan 3.1 05:49:14 10° NNE 05:54:21 89° ESE 05:59:27 10° SSW visible
31 Jan 4.1 17:07:41 10° S 17:12:36 49° W 17:17:33 10° NNW visible
01 Feb 4.4 05:12:36 10° NNE 05:17:29 44° E 05:22:19 10° S visible
01 Feb 3.0 16:30:41 10° SSE 16:35:45 82° ENE 16:40:53 10° NNW visible
01 Feb 6.1 18:12:37 10° WSW 18:15:26 15° W 18:18:16 10° NW visible
02 Feb 5.7 04:36:30 10° NE 04:40:24 22° E 04:44:18 10° SE visible
02 Feb 5.1 17:33:49 10° SSW 17:38:15 30° W 17:42:43 10° NNW visible
03 Feb 6.5 04:02:33 10° ENE 04:03:07 10° E 04:03:41 10° E visible
03 Feb 3.4 05:37:56 10° NNE 05:43:03 73° ESE 05:48:07 10° S visible
03 Feb 3.6 16:56:15 10° S 17:01:16 61° W 17:06:20 10° NNW visible
04 Feb 4.8 05:01:27 10° NNE 05:06:07 35° E 05:10:46 10° SSE visible
04 Feb 5.9 18:00:31 10° SW 18:03:59 18° W 18:07:29 10° NW visible
